H1 CPF 2 NER 2025 7 20 9 201 01 glonass135 H2 1600801 9135 41330 2025 7 20 0 0 0 2025 7 23 23 45 0 900 1 1 0 0 0 1 H9 10 0 60876 0.00000 0 21059258.530 3181867.912 -14072718.152 10 0 60876 900.00000 0 22552723.240 3692501.973 -11381530.779 10 0 60876 1800.00000 0 23757493.881 3970049.246 -8469825.772 10 0 60876 2700.00000 0 24627266.429 4051327.989 -5394054.773 10 0 60876 3600.00000 0 25126169.693 3981517.778 -2213816.383 10 0 60876 4500.00000 0 25230257.192 3812005.985 1009291.594 10 0 60876 5400.00000 0 24928520.865 3597977.353 4212856.799 10 0 60876 6300.00000 0 24223384.715 3395848.227 7334851.579 10 0 60876 7200.00000 0 23130657.927 3260653.412 10314824.275 10 0 60876 8100.00000 0 21678949.309 3243495.419 13095060.220 10 0 60876 9000.00000 0 19908567.051 3389163.279 15621690.759 10 0 60876 9900.00000 0 17869948.916 3734021.044 17845729.512 10 0 60876 10800.00000 0 15621687.290 4304254.956 19724016.578 10 0 60876 11700.00000 0 13228230.082 5114553.552 21220052.994 10 0 60876 12600.00000 0 10757351.873 6167277.127 22304709.705 10 0 60876 13500.00000 0 8277499.142 7452152.872 22956797.507 10 0 60876 14400.00000 0 5855118.726 8946510.381 23163486.856 10 0 60876 15300.00000 0 3552079.563 10616049.819 22920568.909 10 0 60876 16200.00000 0 1423294.166 12416113.000 22232552.018 10 0 60876 17100.00000 0 -485361.681 14293406.487 21112590.678 10 0 60876 18000.00000 0 -2138744.493 16188106.736 19582247.004 10 0 60876 18900.00000 0 -3513683.109 18036260.885 17671087.904 10 0 60876 19800.00000 0 -4599711.129 19772383.829 15416124.305 10 0 60876 20700.00000 0 -5399260.752 21332143.234 12861102.050 10 0 60876 21600.00000 0 -5927309.665 22655019.782 10055657.220 10 0 60876 22500.00000 0 -6210495.791 23686830.175 7054351.690 10 0 60876 23400.00000 0 -6285737.460 24382005.675 3915607.614 10 0 60876 24300.00000 0 -6198417.908 24705528.790 700561.969 10 0 60876 25200.00000 0 -6000211.922 24634445.009 -2528135.690 10 0 60876 26100.00000 0 -5746648.068 24158884.390 -5707557.500 10 0 60876 27000.00000 0 -5494511.505 23282548.841 -8775738.053 10 0 60876 27900.00000 0 -5299199.342 22022643.794 -11672895.840 10 0 60876 28800.00000 0 -5212142.535 20409256.940 -14342610.040 10 0 60876 29700.00000 0 -5278405.261 18484210.406 -16732928.416 10 0 60876 30600.00000 0 -5534564.869 16299435.234 -18797383.855 10 0 60876 31500.00000 0 -6006963.112 13914937.336 -20495899.255 10 0 60876 32400.00000 0 -6710403.145 11396441.107 -21795563.164 10 0 60876 33300.00000 0 -7647347.464 8812810.185 -22671261.575 10 0 60876 34200.00000 0 -8807650.379 6233353.731 -23106154.400 10 0 60876 35100.00000 0 -10168835.855 3725130.764 -23091988.514 10 0 60876 36000.00000 0 -11696908.484 1350364.545 -22629242.542 10 0 60876 36900.00000 0 -13347662.981 -835926.230 -21727101.891 10 0 60876 37800.00000 0 -15068436.838 -2787982.252 -20403265.686 10 0 60876 38700.00000 0 -16800232.477 -4470960.879 -18683590.398 10 0 60876 39600.00000 0 -18480120.009 -5862129.056 -16601577.856 10 0 60876 40500.00000 0 -20043820.261 -6951544.656 -14197718.089 10 0 60876 41400.00000 0 -21428360.553 -7742200.305 -11518700.027 10 0 60876 42300.00000 0 -22574692.707 -8249626.058 -8616505.396 10 0 60876 43200.00000 0 -23430164.466 -8500969.617 -5547403.206 10 0 60876 44100.00000 0 -23950741.851 -8533594.419 -2370864.008 10 0 60876 45000.00000 0 -24102890.054 -8393255.677 851585.488 10 0 60876 45900.00000 0 -23865034.899 -8131931.859 4057545.749 10 0 60876 46800.00000 0 -23228544.141 -7805403.175 7184943.441 10 0 60876 47700.00000 0 -22198187.642 -7470679.008 10173223.538 10 0 60876 48600.00000 0 -20792056.972 -7183382.349 12964512.224 10 0 60876 49500.00000 0 -19040947.285 -6995201.005 15504728.831 10 0 60876 50400.00000 0 -16987226.339 -6951512.542 17744626.011 10 0 60876 51300.00000 0 -14683236.655 -7089282.705 19640738.787 10 0 60876 52200.00000 0 -12189295.897 -7435325.834 21156224.701 10 0 60876 53100.00000 0 -9571377.151 -8005000.893 22261579.233 10 0 60876 54000.00000 0 -6898563.907 -8801398.837 22935212.866 10 0 60876 54900.00000 0 -4240383.991 -9815056.831 23163878.525 10 0 60876 55800.00000 0 -1664131.846 -11024213.121 22942940.659 10 0 60876 56700.00000 0 767710.625 -12395593.908 22276480.011 10 0 60876 57600.00000 0 2999848.246 -13885701.457 21177230.917 10 0 60876 58500.00000 0 4986243.322 -15442551.503 19666351.062 10 0 60876 59400.00000 0 6691796.818 -17007788.931 17773026.658 10 0 60876 60300.00000 0 8093569.627 -18519094.337 15533919.270 10 0 60876 61200.00000 0 9181492.555 -19912781.197 12992463.704 10 0 60876 62100.00000 0 9958534.983 -21126474.671 10198029.611 10 0 60876 63000.00000 0 10440324.953 -22101758.863 7204962.444 10 0 60876 63900.00000 0 10654236.764 -22786680.042 4071522.351 10 0 60876 64800.00000 0 10637985.004 -23137998.885 858742.034 10 0 60876 65700.00000 0 10437785.249 -23123095.125 -2370773.354 10 0 60876 66600.00000 0 10106160.470 -22721442.545 -5554079.586 10 0 60876 67500.00000 0 9699487.602 -21925590.608 -8629134.466 10 0 60876 68400.00000 0 9275389.990 -20741610.148 -11536020.896 10 0 60876 69300.00000 0 8890088.044 -19188983.617 -14218126.464 10 0 60876 70200.00000 0 8595822.089 -17299944.279 -16623255.284 10 0 60876 71100.00000 0 8438458.019 -15118292.317 -18704649.522 10 0 60876 72000.00000 0 8455378.124 -12697738.147 -20421900.159 10 0 60876 72900.00000 0 8673746.914 -10099843.084 -21741729.316 10 0 60876 73800.00000 0 9109225.295 -7391644.295 -22638629.350 10 0 60876 74700.00000 0 9765187.064 -4643063.862 -23095347.127 10 0 60876 75600.00000 0 10632470.148 -1924210.315 -23103205.175 10 0 60876 76500.00000 0 11689672.241 697315.155 -22662254.748 10 0 60876 77400.00000 0 12903977.569 3158996.273 -21781259.122 10 0 60876 78300.00000 0 14232479.242 5405757.040 -20477508.638 10 0 60876 79200.00000 0 15623941.107 7391998.572 -18776472.115 10 0 60876 80100.00000 0 17020924.799 9083234.661 -16711292.195 10 0 60876 81000.00000 0 18362192.658 10457260.294 -14322134.929 10 0 60876 81900.00000 0 19585286.011 11504806.892 -11655406.519 10 0 60876 82800.00000 0 20629171.125 12229659.292 -8762852.485 10 0 60876 83700.00000 0 21436842.500 12648231.817 -5700556.566 10 0 60876 84600.00000 0 21957774.937 12788623.075 -2527858.397 10 0 60876 85500.00000 0 22150122.274 12689190.669 693789.436 10 0 60877 0.00000 0 21982571.399 12396706.764 3902003.016 10 0 60877 900.00000 0 21435773.926 11964172.398 7034666.943 10 0 60877 1800.00000 0 20503296.024 11448383.077 10031125.475 10 0 60877 2700.00000 0 19192046.155 10907347.346 12833348.400 10 0 60877 3600.00000 0 17522162.312 10397666.957 15387045.556 10 0 60877 4500.00000 0 15526362.526 9971988.214 17642710.903 10 0 60877 5400.00000 0 13248784.417 9676631.297 19556576.367 10 0 60877 6300.00000 0 10743360.522 9549496.960 21091457.662 10 0 60877 7200.00000 0 8071795.265 9618338.642 22217476.138 10 0 60877 8100.00000 0 5301225.810 9899472.988 22912642.907 10 0 60877 9000.00000 0 2501662.148 10396983.813 23163293.877 10 0 60877 9900.00000 0 -256688.899 11102454.189 22964366.825 10 0 60877 10800.00000 0 -2906106.021 11995239.540 22319514.398 10 0 60877 11700.00000 0 -5383931.745 13043272.132 21241049.756 10 0 60877 12600.00000 0 -7634940.131 14204365.104 19749724.605 10 0 60877 13500.00000 0 -9613395.590 15427963.045 17874342.434 10 0 60877 14400.00000 0 -11284716.918 16657266.993 15651213.003 10 0 60877 15300.00000 0 -12626676.731 17831645.501 13123457.344 10 0 60877 16200.00000 0 -13630085.727 18889230.617 10340175.736 10 0 60877 17100.00000 0 -14298932.747 19769589.216 7355494.173 10 0 60877 18000.00000 0 -14649974.600 20416356.158 4227507.752 10 0 60877 18900.00000 0 -14711793.109 20779716.824 1017141.900 10 0 60877 19800.00000 0 -14523359.766 20818632.556 -2213045.543 10 0 60877 20700.00000 0 -14132169.599 20502713.154 -5400096.763 10 0 60877 21600.00000 0 -13592024.614 19813655.633 -8481895.406 10 0 60877 22500.00000 0 -12960562.236 18746186.951 -11398391.198 10 0 60877 23400.00000 0 -12296635.219 17308469.826 -14092782.311 10 0 60877 24300.00000 0 -11657655.696 15521953.850 -16512631.098 10 0 60877 25200.00000 0 -11097017.282 13420677.927 -18610890.563 10 0 60877 26100.00000 0 -10661705.458 11050053.513 -20346821.009 10 0 60877 27000.00000 0 -10390197.911 8465180.132 -21686779.021 10 0 60877 27900.00000 0 -10310743.647 5728764.225 -22604863.887 10 0 60877 28800.00000 0 -10440093.185 2908728.863 -23083409.650 10 0 60877 29700.00000 0 -10782732.582 75614.343 -23113314.384 10 0 60877 30600.00000 0 -11330652.531 -2700122.041 -22694201.522 10 0 60877 31500.00000 0 -12063661.065 -5350795.067 -21834411.408 10 0 60877 32400.00000 0 -12950225.535 -7814058.598 -20550824.445 10 0 60877 33300.00000 0 -13948807.464 -10035245.148 -18868520.327 10 0 60877 34200.00000 0 -15009633.330 -11969382.428 -16820280.728 10 0 60877 35100.00000 0 -16076826.465 -13582805.101 -14445945.718 10 0 60877 36000.00000 0 -17090810.323 -14854296.891 -11791636.625 10 0 60877 36900.00000 0 -17990882.269 -15775717.663 -8908860.521 10 0 60877 37800.00000 0 -18717850.180 -16352091.594 -5853513.561 10 0 60877 38700.00000 0 -19216621.558 -16601154.668 -2684802.142 10 0 60877 39600.00000 0 -19438637.009 -16552382.146 535897.567 10 0 60877 40500.00000 0 -19344046.464 -16245538.051 3746220.164 10 0 60877 41400.00000 0 -18903537.212 -15728808.340 6884009.382 10 0 60877 42300.00000 0 -18099737.208 -15056596.523 9888511.699 10 0 60877 43200.00000 0 -16928134.597 -14287074.317 12701542.871 10 0 60877 44100.00000 0 -15397474.427 -13479589.915 15268605.577 10 0 60877 45000.00000 0 -13529615.017 -12692042.303 17539937.296 10 0 60877 45900.00000 0 -11358848.599 -11978331.294 19471468.892 10 0 60877 46800.00000 0 -8930712.887 -11385989.868 21025676.033 10 0 60877 47700.00000 0 -6300341.121 -10954097.902 22172307.382 10 0 60877 48600.00000 0 -3530417.153 -10711564.816 22888975.751 10 0 60877 49500.00000 0 -688818.414 -10675853.548 23161600.706 10 0 60877 50400.00000 0 2153957.226 -10852200.161 22984693.614 10 0 60877 51300.00000 0 4927475.619 -11233362.950 22361478.897 10 0 60877 52200.00000 0 7564051.366 -11799912.988 21303848.037 10 0 60877 53100.00000 0 10001323.017 -12521055.519 19832145.902 10 0 60877 54000.00000 0 12184611.782 -13355949.210 17974792.066 10 0 60877 54900.00000 0 14068965.534 -14255469.218 15767742.962 10 0 60877 55800.00000 0 15620802.496 -15164340.832 13253803.994 10 0 60877 56700.00000 0 16819085.420 -16023554.329 10481803.888 10 0 60877 57600.00000 0 17655976.538 -16772959.146 7505646.682 10 0 60877 58500.00000 0 18136945.375 -17353927.159 4383259.644 10 0 60877 59400.00000 0 18280324.778 -17711971.400 1175457.939 10 0 60877 60300.00000 0 18116334.112 -17799207.884 -2055251.025 10 0 60877 61200.00000 0 17685611.546 -17576554.607 -5245898.999 10 0 60877 62100.00000 0 17037318.527 -17015572.845 -8334298.557 10 0 60877 63000.00000 0 16226898.051 -16099871.152 -11260269.208 10 0 60877 63900.00000 0 15313583.212 -14826011.298 -13966822.453 10 0 60877 64800.00000 0 14357763.140 -13203876.859 -16401281.388 10 0 60877 65700.00000 0 13418319.241 -11256488.279 -18516312.073 10 0 60877 66600.00000 0 12550045.626 -9019271.990 -20270846.017 10 0 60877 67500.00000 0 11801263.425 -6538814.399 -21630875.782 10 0 60877 68400.00000 0 11211729.938 -3871153.257 -22570108.675 10 0 60877 69300.00000 0 10810930.491 -1079678.303 -23070466.577 10 0 60877 70200.00000 0 10616824.153 1767270.864 -23122423.304 10 0 60877 71100.00000 0 10635094.909 4599009.497 -22725174.216 10 0 60877 72000.00000 0 10858938.369 7345206.756 -21886636.054 10 0 60877 72900.00000 0 11269391.406 9938567.493 -20623278.232 10 0 60877 73800.00000 0 11836189.393 12317386.316 -18959789.897 10 0 60877 74700.00000 0 12519113.719 14427869.147 -16928590.041 10 0 60877 75600.00000 0 13269771.921 16226127.517 -14569190.740 10 0 60877 76500.00000 0 14033734.918 17679764.515 -11927426.136 10 0 60877 77400.00000 0 14752941.307 18768988.585 -9054562.301 10 0 60877 78300.00000 0 15368267.509 19487210.639 -6006305.047 10 0 60877 79200.00000 0 15822155.898 19841101.507 -2841724.599 10 0 60877 80100.00000 0 16061190.888 19850109.110 377882.344 10 0 60877 81000.00000 0 16038515.096 19545456.900 3590171.672 10 0 60877 81900.00000 0 15715984.435 18968666.508 6732949.815 10 0 60877 82800.00000 0 15065971.787 18169667.015 9745368.043 10 0 60877 83700.00000 0 14072743.459 17204570.319 12569090.742 10 0 60877 84600.00000 0 12733350.249 16133205.673 15149415.860 10 0 60877 85500.00000 0 11057994.959 15016516.317 17436326.562 10 0 60878 0.00000 0 9069859.850 13913926.866 19385454.389 10 0 60878 900.00000 0 6804398.452 12880790.520 20958936.907 10 0 60878 1800.00000 0 4308121.945 11966024.021 22126151.185 10 0 60878 2700.00000 0 1636924.899 11210027.086 22864312.657 10 0 60878 3600.00000 0 -1145979.749 10642974.888 23158925.053 10 0 60878 4500.00000 0 -3972433.852 10283554.825 23004073.379 10 0 60878 5400.00000 0 -6771918.640 10138201.240 22402553.368 10 0 60878 6300.00000 0 -9474245.019 10200861.130 21365833.807 10 0 60878 7200.00000 0 -12012238.945 10453301.858 19913851.170 10 0 60878 8100.00000 0 -14324310.889 10865949.208 18074639.025 10 0 60878 9000.00000 0 -16356802.588 11399221.737 15883797.931 10 0 60878 9900.00000 0 -18066012.935 12005306.203 13383814.750 10 0 60878 10800.00000 0 -19419817.821 12630299.805 10623243.504 10 0 60878 11700.00000 0 -20398815.425 13216628.889 7655763.001 10 0 60878 12600.00000 0 -20996948.197 13705641.454 4539129.402 10 0 60878 13500.00000 0 -21221574.957 14040262.785 1334044.411 10 0 60878 14400.00000 0 -21092989.892 14167600.375 -1897038.057 10 0 60878 15300.00000 0 -20643409.053 14041386.045 -5091142.210 10 0 60878 16200.00000 0 -19915467.851 13624149.947 -8186012.248 10 0 60878 17100.00000 0 -18960294.182 12889032.521 -11121339.934 10 0 60878 18000.00000 0 -17835240.088 11821156.105 -13839952.324 10 0 60878 18900.00000 0 -16601369.390 10418496.882 -16288935.183 10 0 60878 19800.00000 0 -15320808.997 8692219.417 -18420669.202 10 0 60878 20700.00000 0 -14054077.059 6666459.180 -20193758.282 10 0 60878 21600.00000 0 -12857501.578 4377562.008 -21573831.748 10 0 60878 22500.00000 0 -11780838.713 1872812.530 -22534205.293 10 0 60878 23400.00000 0 -10865190.879 -791294.960 -23056388.581 10 0 60878 24300.00000 0 -10141311.541 -3551170.629 -23130430.716 10 0 60878 25200.00000 0 -9628366.686 -6338539.910 -22755098.155 10 0 60878 26100.00000 0 -9333203.465 -9083050.601 -21937882.836 10 0 60878 27000.00000 0 -9250154.876 -11714968.154 -20694841.655 10 0 60878 27900.00000 0 -9361386.809 -14167847.814 -19050271.409 10 0 60878 28800.00000 0 -9637771.129 -16381073.563 -17036226.361 10 0 60878 29700.00000 0 -10040246.560 -18302159.713 -14691888.375 10 0 60878 30600.00000 0 -10521608.988 -19888721.052 -12062802.136 10 0 60878 31500.00000 0 -11028655.113 -21110031.346 -9199990.411 10 0 60878 32400.00000 0 -11504588.805 -21948107.037 -6158966.377 10 0 60878 33300.00000 0 -11891588.880 -22398272.815 -2998661.901 10 0 60878 34200.00000 0 -12133430.254 -22469186.903 219707.890 10 0 60878 35100.00000 0 -12178048.550 -22182326.464 3433822.220 10 0 60878 36000.00000 0 -11979940.654 -21570955.712 6581452.225 10 0 60878 36900.00000 0 -11502300.430 -20678620.448 9601655.959 10 0 60878 37800.00000 0 -10718799.869 -19557232.310 12435948.422 10 0 60878 38700.00000 0 -9614940.620 -18264822.840 15029424.783 10 0 60878 39600.00000 0 -8188918.523 -16863060.967 17331815.795 10 0 60878 40500.00000 0 -6451963.816 -15414637.166 19298455.777 10 0 60878 41400.00000 0 -4428141.186 -13980622.958 20891145.109 10 0 60878 42300.00000 0 -2153616.078 -12617915.470 22078891.031 10 0 60878 43200.00000 0 324584.441 -11376873.253 22838512.711 10 0 60878 44100.00000 0 2950267.094 -10299241.794 23155098.843 10 0 60878 45000.00000 0 5660155.973 -9416455.347 23022308.540 10 0 60878 45900.00000 0 8386279.935 -8748386.332 22442508.975 10 0 60878 46800.00000 0 11058566.541 -8302595.150 21426746.033 10 0 60878 47700.00000 0 13607536.152 -8074112.644 19994547.238 10 0 60878 48600.00000 0 15966985.071 -8045765.243 18173559.264 10 0 60878 49500.00000 0 18076546.373 -8189030.091 15999025.561 10 0 60878 50400.00000 0 19884021.457 -8465384.993 13513112.859 10 0 60878 51300.00000 0 21347384.386 -8828096.822 10764098.514 10 0 60878 52200.00000 0 22436374.284 -9224373.036 7805433.780 10 0 60878 53100.00000 0 23133608.098 -9597785.033 4694701.039 10 0 60878 54000.00000 0 23435166.163 -9890859.920 1492485.569 10 0 60878 54900.00000 0 23350625.404 -10047729.625 -1738815.379 10 0 60878 55800.00000 0 22902538.590 -10016723.415 -4936221.751 10 0 60878 56700.00000 0 22125381.966 -9752792.027 -8037412.635 10 0 60878 57600.00000 0 21064016.413 -9219658.788 -10981955.193 10 0 60878 58500.00000 0 19771728.285 -8391604.779 -13712494.965 10 0 60878 59400.00000 0 18307934.038 -7254810.983 -16175883.038 10 0 60878 60300.00000 0 16735646.987 -5808199.510 -18324217.089 10 0 60878 61200.00000 0 15118814.360 -4063737.634 -20115775.429 10 0 60878 62100.00000 0 13519637.924 -2046191.418 -21515825.796 10 0 60878 63000.00000 0 11995991.503 207660.805 -22497293.552 10 0 60878 63900.00000 0 10599044.027 2650321.996 -23041277.016 10 0 60878 64800.00000 0 9371187.392 5225322.648 -23137401.039 10 0 60878 65700.00000 0 8344354.948 7869346.595 -22784003.179 10 0 60878 66600.00000 0 7538799.560 10514647.644 -21988150.157 10 0 60878 67500.00000 0 6962380.534 13091656.550 -20765485.501 10 0 60878 68400.00000 0 6610387.147 15531670.314 -19139912.394 10 0 60878 69300.00000 0 6465904.077 17769512.658 -17143118.730 10 0 60878 70200.00000 0 6500701.366 19746056.027 -14813954.158 10 0 60878 71100.00000 0 6676609.853 21410501.579 -12197671.554 10 0 60878 72000.00000 0 6947322.962 22722323.665 -9345047.733 10 0 60878 72900.00000 0 7260548.129 23652799.351 -6311400.373 10 0 60878 73800.00000 0 7560416.835 24186060.754 -3155519.889 10 0 60878 74700.00000 0 7790051.561 24319627.657 61463.387 10 0 60878 75600.00000 0 7894181.774 24064399.564 3277255.244 10 0 60878 76500.00000 0 7821698.972 23444108.354 6429594.708 10 0 60878 77400.00000 0 7528043.530 22494255.130 9457449.662 10 0 60878 78300.00000 0 6977323.106 21260575.934 12302188.564 10 0 60878 79200.00000 0 6144073.379 19797100.358 14908706.400 10 0 60878 80100.00000 0 5014586.782 18163883.801 17226483.829 10 0 60878 81000.00000 0 3587752.610 16424507.463 19210559.820 10 0 60878 81900.00000 0 1875371.966 14643449.615 20822399.642 10 0 60878 82800.00000 0 -98067.414 12883437.025 22030641.914 10 0 60878 83700.00000 0 -2296149.199 11202886.197 22811710.578 10 0 60878 84600.00000 0 -4671790.218 9653540.496 23150279.929 10 0 60878 85500.00000 0 -7168955.852 8278401.332 23039583.363 10 0 60879 0.00000 0 -9724759.898 7110039.672 22481559.228 10 0 60879 900.00000 0 -12271865.101 6169357.988 21486829.518 10 0 60879 1800.00000 0 -14741082.783 5464856.341 20074511.367 10 0 60879 2700.00000 0 -17064069.159 4992431.865 18271862.517 10 0 60879 3600.00000 0 -19176003.197 4735722.366 16113766.743 10 0 60879 4500.00000 0 -21018135.703 4666979.585 13642067.632 10 0 60879 5400.00000 0 -22540102.397 4748435.926 10904762.532 10 0 60879 6300.00000 0 -23701903.302 4934107.172 7955071.599 10 0 60879 7200.00000 0 -24475464.330 5171954.713 4850399.817 10 0 60879 8100.00000 0 -24845714.374 5406315.123 1651212.462 10 0 60879 9000.00000 0 -24811131.655 5580492.936 -1580153.332 10 0 60879 9900.00000 0 -24383735.682 5639405.180 -4780716.498 10 0 60879 10800.00000 0 -23588525.023 5532163.654 -7888094.047 10 0 60879 11700.00000 0 -22462384.899 5214483.540 -10841731.303 10 0 60879 12600.00000 0 -21052511.477 4650814.332 -13584094.777 10 0 60879 13500.00000 0 -19414420.445 3816101.183 -16061803.017 10 0 60879 14400.00000 0 -17609625.141 2697100.794 -18226672.428 10 0 60879 15300.00000 0 -15703083.342 1293195.308 -20036657.021 10 0 60879 16200.00000 0 -13760521.294 -383330.705 -21456663.740 10 0 60879 17100.00000 0 -11845748.157 -2307562.042 -22459227.863 10 0 60879 18000.00000 0 -10018073.888 -4442761.994 -23025036.084 10 0 60879 18900.00000 0 -8329938.470 -6741684.694 -23143288.204 10 0 60879 19800.00000 0 -6824850.896 -9148335.563 -22811891.620 10 0 60879 20700.00000 0 -5535722.701 -11600106.125 -22037486.148 10 0 60879 21600.00000 0 -4483663.891 -14030194.134 -20835299.913 10 0 60879 22500.00000 0 -3677289.396 -16370208.408 -19228840.186 10 0 60879 23400.00000 0 -3112562.776 -18552850.270 -17249425.971 10 0 60879 24300.00000 0 -2773181.344 -20514560.780 -14935572.086 10 0 60879 25200.00000 0 -2631484.468 -22198024.479 -12332236.954 10 0 60879 26100.00000 0 -2649845.086 -23554426.449 -9489948.842 10 0 60879 27000.00000 0 -2782484.608 -24545370.020 -6463827.427 10 0 60879 27900.00000 0 -2977633.882 -25144376.283 -3312519.336 10 0 60879 28800.00000 0 -3179948.712 -25337904.114 -97067.957 10 0 60879 29700.00000 0 -3333078.070 -25125849.233 3120261.075 10 0 60879 30600.00000 0 -3382276.896 -24521502.307 6277176.539 10 0 60879 31500.00000 0 -3276953.715 -23550968.384 9312557.882 10 0 60879 32400.00000 0 -2973045.971 -22252072.085 12167628.665 10 0 60879 33300.00000 0 -2435123.240 -20672794.184 14787085.250 10 0 60879 34200.00000 0 -1638129.734 -18869304.384 17120159.673 10 0 60879 35100.00000 0 -568692.336 -16903671.667 19121596.898 10 0 60879 36000.00000 0 774061.687 -14841346.736 20752528.279 10 0 60879 36900.00000 0 2378213.026 -12748520.468 21981224.821 10 0 60879 37800.00000 0 4219298.838 -10689467.372 22783716.023 10 0 60879 38700.00000 0 6261093.327 -8723983.726 23144262.326 10 0 60879 39600.00000 0 8456890.286 -6905026.384 23055671.696 10 0 60879 40500.00000 0 10751236.640 -5276650.145 22519453.539 10 0 60879 41400.00000 0 13082047.141 -3872329.462 21545805.912 10 0 60879 42300.00000 0 15383014.067 -2713734.698 20153434.994 10 0 60879 43200.00000 0 17586213.043 -1810014.373 18369208.811 10 0 60879 44100.00000 0 19624797.180 -1157613.968 16227650.394 10 0 60879 45000.00000 0 21435667.326 -740639.357 13770278.822 10 0 60879 45900.00000 0 22962006.413 -531750.008 11044809.753 10 0 60879 46800.00000 0 24155570.972 -493544.446 8104230.236 10 0 60879 47700.00000 0 24978642.463 -580379.301 5005765.527 10 0 60879 48600.00000 0 25405555.144 -740544.408 1809758.280 10 0 60879 49500.00000 0 25423734.910 -918700.783 -1421517.338 10 0 60879 50400.00000 0 25034204.310 -1058476.711 -4625082.252 10 0 60879 51300.00000 0 24251531.825 -1105110.072 -7738494.429 10 0 60879 52200.00000 0 23103227.353 -1008022.925 -10701080.338 10 0 60879 53100.00000 0 21628609.728 -723217.258 -13455130.265 10 0 60879 54000.00000 0 19877194.757 -215388.611 -15947032.818 10 0 60879 54900.00000 0 17906672.694 540333.386 -18128325.454 10 0 60879 55800.00000 0 15780561.456 1557092.234 -19956639.937 10 0 60879 56700.00000 0 13565635.327 2835514.823 -21396524.185 10 0 60879 57600.00000 0 11329237.908 4363458.337 -22420124.884 10 0 60879 58500.00000 0 9136592.430 6116304.418 -23007718.286 10 0 60879 59400.00000 0 7048221.933 8057788.042 -23148079.989 10 0 60879 60300.00000 0 5117586.548 10141326.065 -22838687.709 10 0 60879 61200.00000 0 3389035.379 12311789.493 -22085754.429 10 0 60879 62100.00000 0 1896156.781 14507645.262 -20904092.511 10 0 60879 63000.00000 0 660593.778 16663378.083 -19316812.482 10 0 60879 63900.00000 0 -308628.285 18712091.532 -17354863.211 10 0 60879 64800.00000 0 -1015236.243 20588180.371 -15056422.995 10 0 60879 65700.00000 0 -1475302.563 22229963.336 -12466153.690 10 0 60879 66600.00000 0 -1716316.956 23582167.590 -9634332.556 10 0 60879 67500.00000 0 -1775776.914 24598162.076 -6615878.508 10 0 60879 68400.00000 0 -1699357.797 25241847.553 -3469291.365 10 0 60879 69300.00000 0 -1538740.349 25489125.534 -255524.370 10 0 60879 70200.00000 0 -1349187.604 25328885.592 2963188.678 10 0 60879 71100.00000 0 -1186973.345 24763470.528 6124529.573 10 0 60879 72000.00000 0 -1106770.302 23808600.417 9167292.519 10 0 60879 72900.00000 0 -1159107.866 22492758.769 12032559.220 10 0 60879 73800.00000 0 -1388006.101 20856066.235 14664830.262 10 0 60879 74700.00000 0 -1828885.533 18948688.327 17013091.666 10 0 60879 75600.00000 0 -2506840.814 16828842.709 19031796.742 10 0 60879 76500.00000 0 -3435351.336 14560487.984 20681745.003 10 0 60879 77400.00000 0 -4615483.964 12210789.036 21930841.614 10 0 60879 78300.00000 0 -6035622.822 9847463.114 22754723.065 10 0 60879 79200.00000 0 -7671739.380 7536115.829 23137236.987 10 0 60879 80100.00000 0 -9488193.849 5337676.871 23070766.516 10 0 60879 81000.00000 0 -11439036.798 3306041.304 22556392.280 10 0 60879 81900.00000 0 -13469759.099 1486014.138 21603887.829 10 0 60879 82800.00000 0 -15519419.281 -88356.343 20231547.339 10 0 60879 83700.00000 0 -17523061.266 -1394986.868 18465847.428 10 0 60879 84600.00000 0 -19414322.686 -2424458.277 16340948.105 10 0 60879 85500.00000 0 -21128125.262 -3180175.754 13898041.118 99